Location: Borgo
(42.3939°N, 9.2791°E)
Time: 21:20:53
(UTC+00:00)

Cosmos 2112 Rocket - Pass Details

Date: 24 January 2021
Orbit: 757 x 786 km, 74.1° (Epoch: 02 March)

Event Time Altitude Azimuth Distance (km) Brightness Sun altitude
Rises 18:13:37 0° 337° (NNW) 3,244 7.4 -19.7°
Reaches altitude 10° 18:16:01 10° 335° (NNW) 2,309 6.7 -20.1°
Maximum altitude 18:21:13 68° 254° (WSW) 821 4.3 -21.1°
Drops below altitude 10° 18:26:20 10° 172° (S) 2,279 6.4 -22.0°
Sets 18:28:42 0° 169° (S) 3,199 7.2 -22.4°
